Location: Proctor
(47.8934°N, 114.3048°W)
Time: 01:06:11
(UTC+00:00)

AO-109 - Pass Details

Date: 09 July 2022
Orbit: 469 x 506 km, 60.7° (Epoch: 16 August)

Event Time Altitude Azimuth Distance (km) Brightness Sun altitude
Exits shadow 10:26:34 10° 257° (WSW) 1,661 ? -10.7°
Reaches altitude 10° 10:26:36 10° 257° (WSW) 1,652 ? -10.7°
Maximum altitude 10:30:02 35° 326° (NW) 793 ? -10.4°
Drops below altitude 10° 10:33:32 10° 34° (NNE) 1,683 ? -10.0°
Sets 10:35:50 0° 43° (NE) 2,575 ? -9.7°
